Location: Dodgeville, WI 53533, USA
(43.0344°N, 90.0900°W)
Time: 18:23:34
(UTC-06:00)

N. Korean satellite - Pass Details

Date: 29 January 2021
Orbit: 451 x 502 km, 97.2° (Epoch: 06 March)

Event Time Altitude Azimuth Distance (km) Brightness Sun altitude
Rises 06:21:25 0° 356° (N) 2,494 10.0 -10.6°
Reaches altitude 10° 06:23:52 10° 339° (NNW) 1,606 8.9 -10.2°
Maximum altitude 06:26:22 19° 292° (WNW) 1,144 7.8 -9.8°
Drops below altitude 10° 06:28:51 10° 245° (WSW) 1,586 8.7 -9.3°
Sets 06:31:15 0° 227° (SW) 2,450 9.8 -8.9°
